Terminal Aerodrome Forecast
Issued by NWS Charleston, WV

Current Version | Previous Version | Graphics & Text | Print | Product List | Glossary On
Versions: 1 2 3 4 5 6 7 8 9 10 11 12 13 14 15 16 17 18 19 20
000
FTUS41 KRLX 011400 AAA
TAFPKB
TAF AMD
KPKB 011441Z 0115/0212 VRB03KT 6SM BR BKN011 OVC022
     FM011600 35004KT P6SM BKN035
     FM012000 33007KT P6SM SCT080
     FM020300 VRB03KT P6SM SCT250=

USA.gov is the U.S. government's official web portal to all federal, state and local government web resources and services.